Weather History for Morrisville, VT

Change the Weather History Date:

Saturday, September 28, 2013

  Actual Average Record
Temperature  
Mean Temperature 59 °F 53 °F  
Max Temperature 73 °F 65 °F 80 °F (2014)
Min Temperature 44 °F 41 °F 27 °F (2000)
Degree Days  
Heating Degree Days 6 13  
Month to date heating degree days 232 212  
Since 1 July heating degree days 301 307  
Cooling Degree Days 0 0  
Month to date cooling degree days 38 13  
Year to date cooling degree days 401 260  
Growing Degree Days 8 (Base 50)    
Moisture  
Dew Point 46 °F    
Average Humidity 69    
Maximum Humidity 100    
Minimum Humidity 38    
Precipitation  
Precipitation 0.00 in 0.12 in 0.76 in (1996)
Month to date precipitation 2.78 3.15  
Year to date precipitation 33.04 26.91  
Sea Level Pressure  
Sea Level Pressure 30.34 in    
Wind  
Wind Speed 0 mph (South)    
Max Wind Speed 7 mph    
Max Gust Speed 9 mph    
Visibility 5 miles    
Events Fog    
T = Trace of Precipitation, MM = Missing Value Source: NWS Daily Summary

Daily Weather History Graph

Daily Weather History Graph

Search for Another Location

Airport:

Trip Planner

Search our weather history database for the weather conditions in past years. The results will help you decide how hot, cold, wet, or windy it might be!

Date:

Astronomy

Sep. 28, 2013 Rise Set
Actual Time 6:44 AM EDT 6:36 PM EDT
Civil Twilight 6:15 AM EDT 7:05 PM EDT
Nautical Twilight 5:42 AM EDT 7:39 PM EDT
Astronomical Twilight 5:07 AM EDT 8:13 PM EDT
Moon 12:17 AM EDT (9/28) 3:04 PM EDT (9/28)
Length of Visible Light 12h 49m
Length of Day
11h 51m
Last Quarter, 36% of the Moon is Illuminated
Sep 28
Last Quarter
Oct 4
New
Oct 11
First Quarter
Oct 18
Full
Oct 26
Last Quarter

Hourly Weather History & Observations

Time (EDT) Temp. Dew Point Humidity Pressure Visibility Wind Dir Wind Speed Gust Speed Precip Events Conditions
12:01 AM 46.4 °F 44.6 °F 93% 30.32 in 5.0 mi Calm Calm - N/A   Scattered Clouds
12:04 AM 44.6 °F 42.8 °F 93% 30.32 in 1.5 mi Calm Calm - N/A   Mostly Cloudy
12:06 AM 44.6 °F 42.8 °F 93% 30.32 in 0.8 mi Calm Calm - N/A   Mist
12:29 AM 44.6 °F 42.8 °F 93% 30.32 in 1.2 mi Calm Calm - N/A   Overcast
12:32 AM 44.6 °F 42.8 °F 93% 30.32 in 0.8 mi Calm Calm - N/A   Mist
12:54 AM 44.1 °F 43.0 °F 96% 30.34 in 0.5 mi Calm Calm - N/A Fog Fog
1:04 AM 44.6 °F 42.8 °F 93% 30.33 in 1.2 mi Calm Calm - N/A   Overcast
1:10 AM 44.6 °F 44.6 °F 100% 30.33 in 0.8 mi Calm Calm - N/A   Mist
1:54 AM 45.0 °F 44.1 °F 97% 30.35 in 0.2 mi Calm Calm - N/A Fog Fog
2:12 AM 44.6 °F 44.6 °F 100% 30.34 in 1.2 mi Calm Calm - N/A   Overcast
2:17 AM 44.6 °F 44.6 °F 100% 30.34 in 0.8 mi Calm Calm - N/A   Mist
2:54 AM 45.0 °F 43.0 °F 93% 30.35 in 0.2 mi Calm Calm - N/A Fog Fog
3:54 AM 45.0 °F 44.1 °F 97% 30.36 in 0.2 mi Calm Calm - N/A Fog Fog
4:54 AM 45.0 °F 44.1 °F 97% 30.37 in 0.2 mi Calm Calm - N/A Fog Fog
5:54 AM 45.0 °F 44.1 °F 97% 30.38 in 0.2 mi Calm Calm - 0.01 in Fog Fog
6:54 AM 44.1 °F 43.0 °F 96% 30.40 in 0.2 mi Calm Calm - N/A Fog Fog
7:54 AM 44.1 °F 43.0 °F 96% 30.41 in 0.2 mi Calm Calm - N/A Fog Fog
8:54 AM 45.0 °F 44.1 °F 97% 30.41 in 0.5 mi Calm Calm - N/A Fog Fog
9:54 AM 48.0 °F 46.9 °F 96% 30.42 in 0.5 mi Calm Calm - N/A Fog Fog
10:05 AM 48.2 °F 46.4 °F 93% 30.40 in 1.2 mi Calm Calm - N/A   Overcast
10:12 AM 50.0 °F 48.2 °F 94% 30.40 in 3.0 mi Calm Calm - N/A   Overcast
10:32 AM 53.6 °F 51.8 °F 94% 30.39 in 10.0 mi Calm Calm - N/A   Scattered Clouds
10:54 AM 57.9 °F 52.0 °F 81% 30.40 in 10.0 mi Calm Calm - N/A   Clear
11:54 AM 66.0 °F 52.0 °F 60% 30.37 in 10.0 mi Calm Calm - N/A   Clear
12:54 PM 70.0 °F 48.9 °F 47% 30.36 in 10.0 mi Variable 3.5 mph - N/A   Clear
1:54 PM 71.1 °F 46.9 °F 42% 30.33 in 10.0 mi Calm Calm - N/A   Clear
2:54 PM 72.0 °F 48.0 °F 43% 30.31 in 10.0 mi South 3.5 mph - N/A   Clear
3:54 PM 73.0 °F 46.9 °F 39% 30.30 in 10.0 mi Calm Calm - N/A   Clear
4:54 PM 73.0 °F 46.9 °F 39% 30.29 in 10.0 mi Calm Calm - N/A   Clear
5:54 PM 66.0 °F 54.0 °F 65% 30.29 in 10.0 mi Calm Calm - N/A   Clear
6:54 PM 59.0 °F 53.1 °F 81% 30.29 in 10.0 mi Calm Calm - N/A   Clear
7:54 PM 55.0 °F 51.1 °F 86% 30.30 in 10.0 mi Calm Calm - N/A   Clear
8:54 PM 52.0 °F 48.9 °F 89% 30.31 in 10.0 mi Calm Calm - N/A   Clear
9:54 PM 50.0 °F 46.9 °F 89% 30.30 in 10.0 mi Calm Calm - N/A   Clear
10:54 PM 48.0 °F 46.0 °F 93% 30.29 in 10.0 mi Calm Calm - N/A   Clear
11:54 PM 46.0 °F 44.1 °F 93% 30.28 in 9.0 mi Calm Calm - N/A   Clear